Flag for Germany Weather past 2 weeks in Walsrode, Lower Saxony, Germany

Now
64 °F

Passing clouds.


Feels Like: 64 °F
Forecast: 55 / 71 °F
Wind: 3 mph from East

Location: Fassberg

Current Time: Sep 19, 2014 at 9:56:59 PM

Latest Report: Sep 19, 2014 at 9:20 PM


Visibility: N/A

Pressure: 29.92 "Hg

Humidity: 83%

Dew point: 59 °F

Location of WalsrodeLocation

Historic Weather in Walsrode — Graph

°F

Walsrode temperature yesterday

Maximum temperature yesterday: 73 °F (at 3:20 PM)
Minimum temperature yesterday: 54 °F (at 5:20 AM)
Average temperature yesterday: 62 °F

Past Weeks' High & Low Weather Summary

 TemperatureHumidityPressure
High79 °F (Sep 6, 2:20 PM)100% (Sep 5, 4:20 AM)30.24 "Hg (Sep 5, 4:20 AM)
Low46 °F (Sep 8, 5:20 AM)49% (Sep 8, 5:00 PM)29.86 "Hg (Sep 6, 3:20 PM)
Average61 °F83%30.04 "Hg
* Reported Sep 4 8:20 PM — Sep 19 8:20 PM, Walsrode, Weather by CustomWeather, © 2014

Note: Actual official high and low records may vary slightly from our data, if they occured in-between our weather recording intervals... More about our weather records

Advertising

Walsrode weather history for previous 24 hours

 ConditionsComfort  
Time TempWeatherWind HumidityBarometerVisibility
8:20 PM
Sep 19
64 °FBroken clouds.3 mph83%29.92 "HgN/A
7:20 PM66 °FBroken clouds.5 mph78%29.92 "HgN/A
6:20 PM68 °FPartly sunny.3 mph73%29.89 "HgN/A
5:20 PM70 °FPartly sunny.5 mph69%29.89 "HgN/A
4:20 PM70 °FPartly sunny.5 mph69%29.89 "HgN/A
3:20 PM72 °FBroken clouds.7 mph61%29.92 "HgN/A
2:20 PM72 °FBroken clouds.6 mph61%29.92 "HgN/A
1:20 PM73 °FPartly sunny.8 mph57%29.92 "HgN/A
12:20 PM70 °FBroken clouds.5 mph69%29.92 "HgN/A
11:20 AM66 °FPartly sunny.9 mph73%29.92 "HgN/A
10:20 AM63 °FPartly sunny.2 mph88%29.92 "Hg6 mi
8:20 AM57 °FFog.3 mph94%29.92 "Hg3 mi
7:20 AM55 °FFog.6 mph94%29.89 "Hg3 mi
6:20 AM55 °FPassing clouds.3 mph94%29.89 "Hg4 mi
5:20 AM54 °FPartly cloudy.5 mph94%29.89 "Hg4 mi
4:20 AM52 °FFog.5 mph94%29.89 "Hg3 mi
3:20 AM52 °FFog.2 mph94%29.92 "Hg4 mi
2:20 AM52 °FFog.5 mph100%29.92 "Hg5 mi
1:20 AM55 °FCool.2 mph94%29.92 "HgN/A
12:20 AM57 °FCool.2 mph88%29.92 "HgN/A
11:20 PM
Sep 18
57 °FPassing clouds.5 mph88%29.92 "HgN/A
10:20 PM59 °FPassing clouds.6 mph88%29.92 "HgN/A
9:20 PM59 °FPassing clouds.6 mph88%29.92 "HgN/A
Weather by CustomWeather, © 2014

See weather overviewHow to use our weather pages